Jerez de la Frontera, Spain

3:23 AM CEST on April 25, 2017 (GMT +0200)
Jerez

Weather History for LEJR - December, 2012

Change the Weather History Date:

Thursday, December 27, 2012

  Actual Average Record
Temperature  
Mean Temperature 50 °F -  
Max Temperature 62 °F 59 °F 69 °F (2015)
Min Temperature 39 °F 40 °F 32 °F (1998)
Degree Days  
Heating Degree Days 14    
Moisture  
Dew Point 43 °F    
Average Humidity 80    
Maximum Humidity 100    
Minimum Humidity 55    
Precipitation  
Precipitation 0.00 in 0.13 in - ()
Sea Level Pressure  
Sea Level Pressure 30.45 in    
Wind  
Wind Speed 3 mph ()    
Max Wind Speed 12 mph    
Max Gust Speed -    
Visibility 9.0 miles    
Events      
Averages and records for this station are not official NWS values.
T = Trace of Precipitation, MM = Missing Value Source: Averaged Metar Reports

Daily Weather History Graph

Daily Weather History Graph

Search for Another Location

Airport or City:

Trip Planner

Search our weather history database for the weather conditions in past years. The results will help you decide how hot, cold, wet, or windy it might be!

Date:

Astronomy

Dec. 27, 2012 Rise Set
Actual Time 8:35 AM CET 6:15 PM CET
Civil Twilight 8:06 AM CET 6:44 PM CET
Nautical Twilight 7:34 AM CET 7:16 PM CET
Astronomical Twilight 7:02 AM CET 7:48 PM CET
Moon 5:46 PM CET (12/27) 7:36 AM CET (12/27)
Length of Visible Light 10h 37m
Length of Day
9h 39m
Waxing Gibbous, 99% of the Moon is Illuminated
Dec 27
Waxing Gibbous
Dec 28
Full
Jan 5
Last Quarter
Jan 11
New
Jan 19
First Quarter

Hourly Weather History & Observations

Time (CET) Temp. Windchill Dew Point Humidity Pressure Visibility Wind Dir Wind Speed Gust Speed Precip Events Conditions
1:00 AM 46 °F - 44 °F 89% 30.44 in 9 mi North 4.6 mph - -  
5:00 AM 42.8 °F - 41.0 °F 93% 30.42 in - Calm Calm - N/A   Clear
6:00 AM 41.0 °F - 41.0 °F 100% 30.42 in - Variable 2.3 mph - N/A   Clear
6:30 AM 41.0 °F - 39.2 °F 93% 30.42 in - Variable 1.2 mph - N/A   Clear
7:00 AM 40 °F - 39 °F 97% 30.45 in 9 mi North 2.3 mph - -  
7:00 AM 39.2 °F - 39.2 °F 100% 30.42 in - Variable 1.2 mph - N/A   Clear
7:30 AM 39.2 °F - 39.2 °F 100% 30.45 in - Variable 1.2 mph - N/A   Clear
8:00 AM 39.2 °F - 39.2 °F 100% 30.45 in - Calm Calm - N/A   Clear
8:30 AM 39.2 °F - 39.2 °F 100% 30.45 in - Calm Calm - N/A   Clear
9:00 AM 39.2 °F - 39.2 °F 100% 30.45 in - Calm Calm - N/A   Clear
9:30 AM 41.0 °F - 41.0 °F 100% 30.48 in - Calm Calm - N/A   Clear
10:00 AM 44.6 °F - 42.8 °F 93% 30.48 in - Variable 2.3 mph - N/A   Clear
10:30 AM 48.2 °F - 44.6 °F 87% 30.48 in - Variable 2.3 mph - N/A   Clear
11:00 AM 48.2 °F - 44.6 °F 87% 30.51 in - Variable 1.2 mph - N/A   Clear
11:30 AM 51.8 °F - 44.6 °F 76% 30.51 in - Variable 1.2 mph - N/A   Clear
12:00 PM 53.6 °F - 46.4 °F 77% 30.51 in - Calm Calm - N/A   Clear
12:30 PM 57.2 °F - 46.4 °F 67% 30.48 in - Variable 2.3 mph - N/A   Clear
1:00 PM 58 °F - 49 °F 63% 30.49 in 37 mi North 8.1 mph - -  
1:30 PM 57.2 °F - 48.2 °F 72% 30.48 in - North 9.2 mph - N/A   Clear
2:00 PM 59.0 °F - 48.2 °F 67% 30.45 in - North 10.4 mph - N/A   Clear
2:30 PM 60.8 °F - 46.4 °F 59% 30.45 in - North 10.4 mph - N/A   Clear
3:00 PM 60.8 °F - 46.4 °F 59% 30.45 in - North 9.2 mph - N/A   Clear
3:30 PM 60.8 °F - 44.6 °F 55% 30.45 in - North 9.2 mph - N/A   Clear
4:00 PM 60.8 °F - 44.6 °F 55% 30.42 in - North 11.5 mph - N/A   Clear
4:30 PM 60.8 °F - 44.6 °F 55% 30.45 in - North 10.4 mph - N/A   Clear
5:00 PM 60.8 °F - 44.6 °F 55% 30.42 in - NNE 10.4 mph - N/A   Clear
5:30 PM 59.0 °F - 44.6 °F 59% 30.42 in - NNE 8.1 mph - N/A   Clear
6:00 PM 57.2 °F - 44.6 °F 63% 30.45 in - North 8.1 mph - N/A   Clear
6:30 PM 53.6 °F - 44.6 °F 72% 30.45 in - NNE 4.6 mph - N/A   Clear
7:00 PM 51 °F - 46 °F 75% 30.45 in 37 mi NNE 4.6 mph - -  
7:00 PM 51.8 °F - 44.6 °F 76% 30.45 in - NNE 3.5 mph - N/A   Clear
7:30 PM 50.0 °F - 44.6 °F 82% 30.45 in - NNE 6.9 mph - N/A   Clear
8:00 PM 50.0 °F - 44.6 °F 82% 30.45 in - North 5.8 mph - N/A   Clear
8:30 PM 50.0 °F - 42.8 °F 76% 30.45 in - North 5.8 mph - N/A   Clear
9:00 PM 48.2 °F - 42.8 °F 82% 30.45 in - Variable 2.3 mph - N/A   Clear
9:30 PM 46.4 °F 43.5 °F 41.0 °F 81% 30.45 in - NNE 5.8 mph - N/A   Clear
10:00 PM 44.6 °F - 41.0 °F 87% 30.45 in - Variable 1.2 mph - N/A   Clear
10:30 PM 46.4 °F - 41.0 °F 81% 30.45 in - Calm Calm - N/A   Clear
11:00 PM 44.6 °F - 41.0 °F 87% 30.45 in - Calm Calm - N/A   Clear